Ft Pierce, FL

12:24 PM EDT on April 30, 2017 (GMT -0400)
Saint Lucie County International

Weather History for KFPR - October, 2012

Change the Weather History Date:

Monday, October 22, 2012

  Actual Average Record
Temperature  
Mean Temperature 78 °F -  
Max Temperature 82 °F 83 °F 92 °F (1942)
Min Temperature 73 °F 68 °F 51 °F (1976)
Cooling Degree Days 12    
Growing Degree Days 28 (Base 50)    
Moisture  
Dew Point 63 °F    
Average Humidity 58    
Maximum Humidity 67    
Minimum Humidity 49    
Precipitation  
Precipitation 0.00 in - - ()
Sea Level Pressure  
Sea Level Pressure 30.02 in    
Wind  
Wind Speed 8 mph (ENE)    
Max Wind Speed 14 mph    
Max Gust Speed 23 mph    
Visibility 10 miles    
Events      
Averages and records for this station are not official NWS values.
T = Trace of Precipitation, MM = Missing Value Source: NWS Daily Summary

Daily Weather History Graph

Daily Weather History Graph

Search for Another Location

Airport or City:

Trip Planner

Search our weather history database for the weather conditions in past years. The results will help you decide how hot, cold, wet, or windy it might be!

Date:

Astronomy

Oct. 22, 2012 Rise Set
Actual Time 7:25 AM EDT 6:45 PM EDT
Civil Twilight 7:02 AM EDT 7:09 PM EDT
Nautical Twilight 6:34 AM EDT 7:36 PM EDT
Astronomical Twilight 6:07 AM EDT 8:03 PM EDT
Moon 2:19 PM EDT (10/22) 12:47 AM EDT (10/22)
Length of Visible Light 12h 07m
Length of Day
11h 19m
First Quarter, 56% of the Moon is Illuminated
Oct 22
First Quarter
Oct 29
Full
Nov 6
Last Quarter
Nov 13
New
Nov 20
First Quarter

Hourly Weather History & Observations

Time (EDT) Temp. Heat Index Dew Point Humidity Pressure Visibility Wind Dir Wind Speed Gust Speed Precip Events Conditions
12:53 AM 75.9 °F - 62.1 °F 62% 30.01 in 10.0 mi ENE 4.6 mph - N/A   Scattered Clouds
1:53 AM 75.9 °F - 61.0 °F 60% 30.01 in 10.0 mi ENE 5.8 mph - N/A   Clear
2:53 AM 73.9 °F - 61.0 °F 64% 29.99 in 10.0 mi ENE 3.5 mph - N/A   Clear
3:53 AM 75.9 °F - 63.0 °F 64% 29.99 in 10.0 mi Variable 4.6 mph - N/A   Mostly Cloudy
4:53 AM 75.9 °F - 64.0 °F 67% 29.98 in 10.0 mi NE 8.1 mph - N/A   Overcast
5:53 AM 77.0 °F - 62.1 °F 60% 30.00 in 10.0 mi ENE 8.1 mph - N/A   Mostly Cloudy
6:53 AM 75.9 °F - 61.0 °F 60% 30.02 in 10.0 mi ENE 6.9 mph - N/A   Scattered Clouds
8:53 AM 79.0 °F - 62.1 °F 56% 30.05 in 10.0 mi ENE 10.4 mph 20.7 mph N/A   Scattered Clouds
9:53 AM 81.0 °F 81.6 °F 60.1 °F 49% 30.06 in 10.0 mi ENE 10.4 mph - N/A   Clear
10:53 AM 81.0 °F 81.9 °F 62.1 °F 52% 30.06 in 10.0 mi East 11.5 mph - N/A   Scattered Clouds
11:53 AM 82.9 °F 84.4 °F 64.0 °F 53% 30.05 in 10.0 mi NE 11.5 mph 21.9 mph N/A   Scattered Clouds
12:53 PM 82.0 °F 83.0 °F 62.1 °F 51% 30.04 in 10.0 mi NE 11.5 mph 19.6 mph N/A   Partly Cloudy
1:53 PM 82.0 °F 83.4 °F 64.0 °F 54% 30.01 in 10.0 mi ENE 13.8 mph 23.0 mph N/A   Partly Cloudy
2:53 PM 82.0 °F 83.4 °F 64.0 °F 54% 30.00 in 10.0 mi ENE 13.8 mph 20.7 mph N/A   Partly Cloudy
3:53 PM 81.0 °F 82.2 °F 63.0 °F 54% 29.99 in 10.0 mi ENE 12.7 mph 21.9 mph N/A   Clear
4:53 PM 79.0 °F - 62.1 °F 56% 30.00 in 10.0 mi ENE 10.4 mph 21.9 mph N/A   Partly Cloudy
5:53 PM 79.0 °F - 64.0 °F 60% 30.00 in 10.0 mi ENE 11.5 mph 20.7 mph N/A   Scattered Clouds
6:53 PM 78.1 °F - 63.0 °F 60% 30.01 in 10.0 mi ENE 13.8 mph 19.6 mph N/A   Partly Cloudy
7:53 PM 77.0 °F - 63.0 °F 62% 30.02 in 10.0 mi ENE 6.9 mph - N/A   Clear
8:53 PM 78.8 °F - 64.4 °F 61% 30.03 in 10.0 mi ENE 8.1 mph - N/A   Mostly Cloudy
9:53 PM 77.0 °F - 64.0 °F 64% 30.04 in 10.0 mi ENE 9.2 mph - N/A   Clear
10:53 PM 77.0 °F - 63.0 °F 62% 30.04 in 10.0 mi ENE 6.9 mph 16.1 mph N/A   Scattered Clouds
11:53 PM 77.0 °F - 61.0 °F 58% 30.03 in 10.0 mi ENE 9.2 mph 16.1 mph N/A   Mostly Cloudy